Vorticity
nan nan nan nan nan nan nan nan nan nan nan nan nan nan nan nan nan nan nan nan nan nan nan nan nan nan nan nan nan nan nan nan nan nan nan nan nan nan nan nan nan nan nan nan nan nan nan nan nan nan nan nan nan nan
nan 11 12 11 10 8 8 9 8 8 9 9 9 9 9 10 8 6 8 11 11 9 10 10 9 11 10 2 6 8 6 7 12 12 11 11 9 15 20 20 14 14 10 10 13 7 13 12 7 14 13 10 8 nan
nan 9 11 11 11 11 9 8 8 9 10 11 11 12 13 13 12 6 7 12 10 10 12 11 13 17 19 15 5 3 8 8 6 8 8 12 11 10 10 12 10 15 15 12 11 11 10 8 10 11 9 10 9 nan
nan 10 10 11 11 10 8 8 10 11 12 12 12 13 15 18 21 8 6 8 9 11 11 11 13 17 19 21 16 8 -2 2 8 9 11 9 11 10 10 12 12 7 8 13 7 11 13 15 12 8 6 7 9 nan
nan 11 11 11 10 9 8 9 10 10 12 13 13 13 15 22 17 6 11 10 9 9 9 9 11 16 16 18 16 13 11 6 7 11 11 10 12 11 10 11 12 11 8 8 9 10 9 14 13 9 9 7 6 nan
nan 10 11 11 10 9 9 9 8 8 10 11 10 11 16 16 4 4 9 15 13 10 9 10 13 11 13 17 18 16 15 12 9 10 11 9 9 11 10 8 6 9 7 4 6 10 5 7 12 11 10 8 9 nan
nan 10 12 11 10 10 10 10 8 8 7 7 8 10 11 3 4 12 10 13 12 7 8 10 12 12 11 13 14 16 15 13 11 10 12 11 13 10 7 6 9 9 8 9 10 7 10 11 10 8 7 8 8 nan
nan 11 11 10 9 10 11 10 11 9 8 9 10 10 12 6 5 10 16 13 6 8 11 11 10 11 14 11 10 12 11 11 12 9 12 14 14 11 9 9 13 12 13 14 15 10 6 6 8 8 8 10 8 nan
nan 10 10 9 8 10 11 11 11 11 13 11 8 8 9 12 11 9 13 13 10 11 10 11 12 9 12 12 11 11 11 10 11 12 13 12 10 8 6 10 13 13 11 10 11 12 17 13 9 10 12 12 8 nan
nan 9 9 9 9 9 10 10 11 15 10 4 6 8 12 13 8 12 15 12 11 9 10 11 9 9 9 11 11 13 12 11 11 13 11 10 8 12 17 13 14 12 10 10 12 22 21 15 14 14 14 13 13 nan
nan 13 10 10 10 9 9 10 12 4 1 9 11 10 12 11 12 11 11 12 10 11 12 13 12 10 10 11 11 10 9 12 11 14 9 11 14 20 16 10 8 10 12 12 14 17 17 14 13 15 17 18 16 nan
nan 13 14 11 11 11 10 13 5 1 13 11 9 10 13 13 10 11 11 12 10 11 13 12 13 11 9 12 12 10 10 11 14 10 9 10 13 12 7 9 8 9 11 12 12 12 14 14 12 13 15 17 13 nan
nan 15 14 13 12 10 10 14 11 5 5 8 12 13 13 12 10 11 11 10 11 14 13 11 11 11 12 12 11 10 12 9 11 10 11 12 11 9 7 7 8 11 12 11 11 13 15 15 16 14 10 13 14 nan
nan 13 12 10 9 9 10 15 9 -3 5 11 9 11 12 10 13 11 10 11 11 11 12 12 11 12 12 10 10 11 11 10 11 12 12 12 11 8 8 7 8 9 12 13 13 13 14 14 16 18 20 18 17 nan
nan 7 9 9 10 10 10 14 4 1 11 11 10 14 12 8 10 12 10 10 12 11 12 13 13 12 10 11 11 10 12 12 12 10 11 10 11 9 9 10 11 12 12 12 12 13 13 15 16 18 24 21 14 nan
nan 12 18 17 13 11 14 11 7 9 11 13 10 11 13 11 11 14 14 11 12 11 13 12 12 11 12 13 12 11 11 11 11 12 10 9 9 11 11 12 11 11 12 11 12 13 14 14 15 14 15 17 18 nan
nan 12 15 21 21 15 11 10 13 11 9 10 11 12 9 11 12 10 12 16 12 11 11 13 14 10 10 13 12 13 9 10 12 12 10 9 9 12 13 11 11 12 12 12 13 12 14 14 14 12 10 12 15 nan
nan 11 10 12 15 14 12 12 10 12 11 11 12 12 10 9 12 10 12 13 10 11 11 10 13 16 10 10 10 10 11 12 11 11 10 10 12 12 10 11 12 13 14 13 13 13 12 14 14 13 11 11 11 nan
nan 9 11 10 8 9 12 11 10 13 13 10 13 13 12 12 14 13 12 12 11 9 11 14 12 12 13 11 11 12 13 11 11 11 11 11 12 12 12 13 13 12 12 13 14 14 12 13 15 14 12 12 11 nan
nan 10 13 14 8 7 12 13 12 12 13 11 14 13 11 12 12 15 13 13 12 12 13 11 12 12 13 12 12 12 13 12 10 11 13 11 11 12 13 14 13 13 13 12 13 13 14 12 13 14 14 15 13 nan
nan 18 18 16 10 9 9 13 12 12 12 13 11 12 11 13 12 12 15 14 11 11 12 13 11 12 13 12 13 13 13 12 11 11 10 11 11 11 13 14 12 14 13 12 13 13 13 13 13 13 13 13 13 nan
nan 14 11 12 12 10 11 13 10 13 13 12 13 11 11 11 13 13 13 12 11 12 11 12 13 15 13 12 12 10 10 11 12 13 12 12 12 13 13 13 12 12 13 13 13 13 12 13 13 13 13 12 12 nan
nan 10 12 13 11 10 12 13 15 12 10 12 12 12 12 12 12 12 11 12 10 11 13 11 12 15 15 12 11 11 12 12 12 13 12 12 13 14 12 12 13 13 12 12 12 11 12 13 13 12 12 12 12 nan
nan 13 14 11 11 10 13 12 13 12 13 13 11 12 13 11 11 12 12 11 11 11 12 15 15 11 12 11 10 10 12 13 14 14 14 13 12 11 12 12 13 12 13 13 12 12 12 12 11 10 11 11 11 nan
nan 12 12 11 12 14 10 12 13 12 13 13 10 12 14 14 12 12 12 9 9 10 12 16 15 11 11 11 12 12 12 13 14 11 13 14 11 10 10 10 10 12 14 13 12 12 12 11 11 13 13 12 12 nan
nan 10 12 13 13 14 12 11 12 13 13 13 11 10 14 13 12 11 11 12 11 9 9 11 13 14 14 12 12 12 12 14 14 11 12 16 14 13 12 10 8 8 11 14 15 14 12 11 12 12 13 14 14 nan
nan 12 14 11 12 12 12 14 14 13 13 12 10 13 15 13 11 12 13 13 11 10 9 10 13 14 15 16 14 13 14 15 14 14 12 12 13 15 16 14 12 10 12 12 12 15 16 14 12 11 10 10 13 nan
nan 16 14 9 12 16 13 12 14 12 10 12 14 15 14 12 12 12 12 11 10 10 14 14 13 15 16 16 16 14 13 13 13 11 9 8 10 13 14 14 16 13 10 12 12 12 14 15 15 14 12 12 12 nan
nan 14 14 14 13 14 15 12 10 11 12 11 12 13 13 12 13 11 12 12 14 13 11 12 12 13 14 12 11 12 16 17 13 8 7 8 10 11 10 12 13 13 12 11 11 12 12 11 12 14 13 12 13 nan
nan 12 13 15 14 13 12 10 10 14 14 12 11 11 13 12 12 11 10 12 14 15 15 13 12 12 12 10 11 10 10 13 15 15 14 14 14 14 13 10 10 12 15 15 11 7 10 14 12 12 13 13 14 nan
nan 16 15 13 11 12 12 11 14 14 12 12 14 15 11 11 12 10 10 14 15 13 10 12 18 18 15 14 13 12 13 11 11 15 18 18 16 12 12 12 12 13 14 15 16 15 12 12 12 14 14 13 14 nan
nan 14 13 13 13 11 12 17 16 10 13 15 13 15 14 12 11 8 9 12 12 11 13 13 12 14 20 20 15 14 16 14 13 14 17 18 14 14 13 13 14 15 15 15 15 17 18 17 15 16 14 12 13 nan
nan nan nan nan nan nan nan nan nan nan nan nan nan nan nan nan nan nan nan nan nan nan nan nan nan nan nan nan nan nan nan nan nan nan nan nan nan nan nan nan nan nan nan nan nan nan nan nan nan nan nan nan nan nan
CAPE
39 53 78 70 68 42 10 7 12 13 19 21 17 23 40 37 55 3 0 0 20 9 0 0 0 0 0 5 5 0 1 1 20 31 39 6 4 0 3 0 22 67 157 151 113 61 0 0 0 0 5 0 0 0
44 62 76 70 74 57 15 13 17 19 23 26 21 27 37 55 64 2 0 0 0 7 3 0 0 0 0 0 2 8 6 0 48 38 17 12 11 7 4 11 0 101 45 47 26 58 0 0 0 0 0 0 0 0
66 66 80 78 82 75 44 34 6 1 25 28 23 24 31 48 68 1 0 2 3 6 4 9 0 0 0 0 0 7 22 14 38 1 43 21 15 1 29 8 0 0 0 0 0 0 0 0 0 0 0 0 0 0
114 104 101 90 81 82 41 11 19 22 20 25 2 10 13 36 79 11 6 3 3 3 3 0 0 0 0 0 0 0 0 3 22 44 25 33 32 1 12 12 0 0 0 0 0 0 0 0 0 0 0 0 0 0
104 93 83 83 82 61 11 24 31 28 12 16 8 9 10 25 76 0 4 3 1 15 2 0 0 0 0 0 0 0 5 6 2 6 36 19 7 10 4 0 0 0 0 0 0 0 5 6 0 0 0 0 0 0
97 73 72 85 89 57 35 51 46 41 37 41 40 46 72 97 0 0 0 0 0 5 1 1 0 0 0 0 0 0 0 10 6 10 11 5 0 28 24 1 0 0 0 0 0 0 0 0 0 0 0 0 0 0
77 63 83 78 80 32 41 56 61 55 35 13 10 8 73 0 0 0 0 0 0 1 3 1 0 0 0 0 0 0 0 0 0 0 0 0 0 36 1 3 0 0 0 0 0 0 0 0 0 0 0 0 0 0
65 72 83 70 58 17 61 78 48 48 33 27 10 12 11 44 0 0 0 5 0 6 4 2 0 0 0 0 0 0 0 0 0 0 0 0 0 1 16 0 0 0 0 0 0 0 0 0 0 0 0 0 0 0
59 63 71 73 58 38 68 54 40 34 25 42 10 0 0 0 0 0 0 0 0 0 0 3 0 0 0 0 0 0 0 2 0 1 0 0 1 2 0 0 0 0 0 0 1 1 0 0 0 0 0 0 0 0
53 63 74 72 61 46 64 69 49 37 38 0 0 0 0 0 0 0 5 10 20 17 13 6 0 0 0 0 0 0 1 2 14 0 0 5 0 0 0 0 2 9 12 13 4 0 2 0 0 0 0 0 0 0
23 59 56 63 64 63 57 52 43 19 0 0 0 0 0 1 6 8 1 0 0 1 1 2 0 1 0 4 7 0 1 0 14 0 4 7 2 0 3 5 11 1 1 1 3 2 0 0 0 0 0 0 0 0
0 35 51 59 55 40 42 54 39 0 0 0 0 2 7 31 17 1 0 0 2 0 0 0 0 1 0 0 2 1 8 12 2 1 8 1 0 5 3 2 4 1 1 2 1 5 2 2 1 1 0 0 0 0
34 50 45 48 44 29 36 48 23 0 0 0 0 2 3 7 1 0 0 0 1 0 0 0 1 0 0 0 1 1 9 1 0 1 0 0 0 1 0 0 0 0 0 0 0 1 4 2 1 0 0 0 0 0
20 19 10 16 21 30 52 51 56 10 11 3 1 0 0 0 0 0 0 0 0 0 0 0 2 2 2 4 0 5 0 3 0 0 0 0 0 0 0 0 0 0 1 0 1 2 1 1 0 0 0 0 0 0
0 0 0 0 0 18 41 58 47 2 4 2 15 0 0 0 0 0 0 0 0 2 2 5 10 3 5 3 2 3 0 0 0 0 0 0 0 0 0 0 0 0 0 1 2 2 0 0 0 1 1 0 0 0
0 0 0 0 0 3 26 32 10 3 2 6 8 4 0 1 0 0 0 0 2 3 3 7 6 5 2 1 2 0 0 0 0 0 0 0 0 0 0 0 0 1 1 2 1 2 1 0 0 1 0 1 1 0
5 0 8 23 21 17 21 16 3 2 2 7 1 0 0 0 0 0 0 0 1 4 9 18 3 0 0 1 1 0 0 0 0 0 0 0 0 0 0 0 0 2 0 0 0 0 0 1 0 0 0 0 0 0
0 5 2 10 1 6 6 5 4 6 6 0 2 0 1 0 0 0 0 0 2 5 14 22 5 1 0 0 0 0 0 0 1 0 0 0 0 0 0 1 1 1 0 0 0 0 0 0 0 0 0 0 0 0
0 3 2 1 0 4 3 5 8 2 0 0 0 0 0 0 0 0 0 1 1 2 5 2 6 9 0 0 0 0 0 0 0 0 0 0 1 1 1 0 0 0 0 0 0 0 0 0 0 0 0 0 0 0
25 15 4 19 3 8 8 2 7 3 2 0 0 1 0 0 0 0 1 5 9 14 11 6 0 0 0 0 0 0 0 1 0 0 0 0 1 0 0 0 0 0 0 0 0 0 0 0 1 1 1 0 0 0
0 0 0 1 12 7 10 0 2 0 0 2 0 1 0 0 2 3 3 1 4 7 1 0 0 0 0 2 0 0 0 0 0 0 2 3 0 0 0 0 1 0 0 0 1 1 1 1 2 1 1 1 0 0
0 0 0 0 5 10 5 0 0 1 4 1 2 1 1 0 0 1 0 4 1 0 0 0 0 0 2 0 0 0 0 0 0 0 0 0 0 0 1 1 0 1 1 1 1 1 2 2 2 1 1 1 0 0
0 0 1 1 1 0 0 0 1 0 2 0 1 1 0 1 0 0 1 0 0 0 0 0 0 1 0 0 0 0 0 0 1 0 0 1 0 0 0 1 0 1 1 1 1 1 1 0 1 1 1 1 0 0
0 0 0 0 2 0 0 0 1 2 0 0 0 0 0 0 0 0 0 0 0 0 0 1 0 2 1 1 1 0 0 0 0 0 1 0 0 1 0 0 1 1 1 0 0 1 0 0 0 0 0 0 0 0
1 0 0 0 0 0 0 0 0 0 0 0 0 0 0 0 0 0 0 0 0 3 1 1 2 2 1 0 0 0 0 0 1 0 1 1 1 1 1 0 0 1 0 0 1 1 2 2 2 1 1 1 0 0
5 0 0 0 0 0 0 0 0 0 0 0 0 0 0 0 0 0 0 0 0 0 0 0 1 1 0 0 0 0 0 0 1 0 1 1 1 1 1 0 0 0 0 0 1 1 1 1 1 0 1 1 0 1
0 0 0 1 0 0 0 0 0 0 0 0 0 0 0 0 0 0 0 0 0 0 0 0 1 1 1 0 0 0 0 0 0 0 0 0 0 0 0 0 0 0 0 0 0 0 1 1 0 0 0 0 0 0
0 0 0 0 0 0 0 0 0 0 0 0 0 0 0 0 0 0 0 0 0 0 0 0 0 0 0 0 0 0 0 0 0 0 0 0 0 0 0 0 0 0 0 0 0 0 0 0 0 0 0 0 0 0
0 0 0 0 0 0 0 0 0 0 0 0 0 0 0 0 0 0 0 0 0 0 0 0 0 0 0 0 0 0 0 0 0 0 0 0 0 0 1 0 0 0 0 0 0 0 0 0 0 0 0 0 0 0
0 0 0 0 0 0 0 0 0 0 0 0 0 0 0 0 0 0 0 0 0 0 0 0 0 0 0 0 0 0 0 0 0 0 0 0 0 0 1 1 1 1 0 0 0 0 0 0 0 0 0 0 0 1
0 0 0 0 0 0 0 0 0 0 0 0 0 0 0 0 0 0 0 0 0 0 0 0 0 0 0 0 0 0 0 0 0 0 0 0 0 0 0 0 0 0 0 0 0 0 0 0 0 0 0 0 0 0
0 0 0 0 0 0 0 0 0 0 0 1 0 0 0 0 0 0 0 0 0 0 0 0 0 0 0 0 0 0 0 0 0 0 0 0 0 0 0 0 0 0 0 0 0 0 0 0 0 0 0 0 0 0
0 0 0 0 0 0 0 0 0 0 0 0 0 0 0 0 0 0 0 0 0 0 0 0 0 1 0 0 0 0 0 0 0 0 0 0 0 0 0 0 0 0 0 0 0 0 0 0 0 0 0 0 0 0